To NAV CANADA Home Page Login to a new session Search on AWWS site Feedback and Comments Disclaimer Vers la page française équivalente Tips FAQ What's new on the site To the Forecasts and Observations / NOTAM section To "File a Flight Plan" website Publications and other links Update of the User's profile FIC Telephone Numbers My Weather Data Folder Route Weather Data Regional Weather Data Local Weather Data To the Forecasts and Observations / NOTAM section
Request Generated 01/21/2017 at 02:04:02 UTC . Weather information available at that time is displayed.

METAR/TAF

MAKKOVIK/NL    

LWIS CYFT 210200Z AUTO 20005KT M13/M15 A2990=
LWIS CYFT 210100Z AUTO 19004KT M12/M14 A2990=
LWIS CYFT 210000Z AUTO 20005KT M11/M14 A2991=

CYFT - No TAF is issued for this station

Your time UTC time
Weather data provided by Environment Canada and NAV CANADA